Date String (YYYY-MM-DD hh:mm:ss) UTC,Instrument flags,Ambient pressure (hPa),Sample flow (lpm),Bypass flow (lpm),Sample temperature (°C),Ambient temperature (°C),ASC tube jacket temperature (°C),LED temperature (°C),Box temperature (°C),Sample RH (%),Span deviation,Mass concentration (μg/m³),Mass concentration (μg/m³),Mass concentration (μg/m³)
DateTimeUTC,F1_M11,P_M11,Q1_M11,Q2_M11,T1_M11,T2_M11,T3_M11,T4_M11,T5_M11,U1_M11,ZSPAN_M11,X0_M11,X2_M11,X1_M11
2021-09-05 13:00:00,,0830.9,5.00,0.00,30.2,29.2,00.0,39.4,31.9,08.0,0002.0,0020.65,0013.01,0012.35
2021-09-05 13:01:00,,0830.9,4.99,0.00,30.2,29.1,00.0,39.4,31.9,08.0,0002.8,0020.69,0013.05,0012.38
2021-09-05 13:02:00,,0830.9,4.99,0.00,30.2,29.1,00.0,39.4,31.9,08.0,0002.9,0020.35,0013.10,0012.39
2021-09-05 13:03:00,,0830.9,5.00,0.00,30.2,29.2,00.0,39.4,31.9,08.0,0002.8,0020.11,0013.12,0012.41
2021-09-05 13:04:00,,0831.0,5.01,0.00,30.2,29.1,00.0,39.4,31.9,08.0,0002.8,0019.90,0013.13,0012.42
2021-09-05 13:05:00,,0831.0,5.00,0.00,30.2,29.1,00.0,39.4,31.9,08.1,0002.5,0019.79,0013.13,0012.44
2021-09-05 13:06:00,,0831.0,4.99,0.00,30.2,29.1,00.0,39.4,31.9,08.1,0002.3,0019.70,0013.15,0012.45
2021-09-05 13:07:00,,0831.0,5.01,0.00,30.2,29.2,00.0,39.4,31.9,08.1,0002.2,0019.76,0013.18,0012.45
2021-09-05 13:08:00,,0831.0,5.00,0.00,30.2,29.2,00.0,39.4,31.9,08.0,0002.7,0020.73,0013.22,0012.48
2021-09-05 13:09:00,,0831.0,5.00,0.00,30.2,29.2,00.0,39.4,31.9,07.9,0002.7,0020.31,0013.23,0012.49
2021-09-05 13:10:00,,0831.0,5.00,0.00,30.2,29.2,00.0,39.4,31.9,07.8,0002.7,0019.62,0013.22,0012.51
2021-09-05 13:11:00,,0831.1,4.99,0.00,30.3,29.2,00.0,39.4,32.0,07.8,0002.2,0019.37,0013.20,0012.49
2021-09-05 13:12:00,,0831.1,5.00,0.00,30.3,29.3,00.0,39.4,32.0,07.9,0001.8,0019.55,0013.19,0012.49
2021-09-05 13:13:00,,0831.1,5.01,0.00,30.3,29.3,00.0,39.4,32.0,07.8,0002.0,0019.33,0013.09,0012.47
2021-09-05 13:14:00,,0831.1,4.99,0.00,30.3,29.2,00.0,39.4,32.0,07.6,0002.3,0019.13,0013.07,0012.47
2021-09-05 13:15:00,,0831.1,5.00,0.00,30.3,29.2,00.0,39.4,31.9,07.7,0002.5,0019.19,0013.09,0012.47
2021-09-05 13:16:00,,0831.2,5.01,0.00,30.3,29.2,00.0,39.4,32.0,07.6,0002.5,0019.30,0013.16,0012.50
2021-09-05 13:17:00,,0831.2,5.00,0.00,30.3,29.3,00.0,39.4,32.0,07.7,0002.4,0019.41,0013.20,0012.53
2021-09-05 13:18:00,,0831.2,4.99,0.00,30.3,29.3,00.0,39.4,32.0,07.8,0002.2,0019.57,0013.24,0012.56
2021-09-05 13:19:00,,0831.2,5.00,0.00,30.3,29.3,00.0,39.4,32.0,07.8,0002.0,0018.74,0013.21,0012.55
2021-09-05 13:20:00,,0831.2,5.00,0.00,30.3,29.3,00.0,39.4,32.0,08.0,0002.1,0018.53,0013.18,0012.55
2021-09-05 13:21:00,,0831.2,4.99,0.00,30.3,29.3,00.0,39.4,32.0,08.1,0002.1,0018.62,0013.23,0012.56
2021-09-05 13:22:00,,0831.2,5.00,0.00,30.3,29.3,00.0,39.4,32.0,08.2,0002.2,0018.84,0013.27,0012.57
2021-09-05 13:23:00,,0831.2,5.00,0.00,30.3,29.3,00.0,39.4,32.0,08.5,0002.4,0019.06,0013.29,0012.58
2021-09-05 13:24:00,,0831.2,4.99,0.00,30.3,29.3,00.0,39.4,32.0,08.3,0002.5,0019.60,0013.34,0012.61
2021-09-05 13:25:00,,0831.2,5.00,0.00,30.3,29.3,00.0,39.5,32.0,08.3,0002.1,0019.62,0013.33,0012.62
2021-09-05 13:26:00,,0831.2,5.01,0.00,30.3,29.3,00.0,39.5,32.1,08.5,0002.1,0019.67,0013.37,0012.61
2021-09-05 13:27:00,,0831.2,5.00,0.00,30.3,29.3,00.0,39.5,32.0,08.7,0002.2,0019.40,0013.29,0012.58
2021-09-05 13:28:00,,0831.2,5.00,0.00,30.3,29.4,00.0,39.5,32.0,08.9,0002.8,0019.31,0013.25,0012.57
2021-09-05 13:29:00,,0831.2,4.99,0.00,30.3,29.4,00.0,39.5,32.0,09.3,0002.8,0019.21,0013.17,0012.53
2021-09-05 13:30:00,,0831.2,5.01,0.00,30.3,29.4,00.0,39.5,32.0,09.1,0002.8,0019.05,0013.14,0012.50
2021-09-05 13:31:00,,0831.1,4.99,0.00,30.3,29.4,00.0,39.5,32.0,09.0,0002.7,0018.70,0013.13,0012.47
2021-09-05 13:32:00,,0831.2,4.99,0.00,30.3,29.5,00.0,39.5,32.0,09.4,0002.4,0018.66,0013.09,0012.44
2021-09-05 13:33:00,,0831.2,5.02,0.00,30.3,29.5,00.0,39.5,32.0,09.1,0002.1,0018.47,0013.01,0012.39
2021-09-05 13:34:00,,0831.1,5.00,0.00,30.4,29.5,00.0,39.5,32.0,08.7,0002.1,0018.04,0012.98,0012.39
2021-09-05 13:35:00,,0831.2,5.00,0.00,30.4,29.5,00.0,39.5,32.1,09.4,0001.9,0017.58,0012.97,0012.36
2021-09-05 13:36:00,,0831.2,5.00,0.00,30.4,29.5,00.0,39.5,32.1,09.2,0002.3,0017.39,0012.96,0012.34
2021-09-05 13:37:00,,0831.2,5.01,0.00,30.4,29.5,00.0,39.5,32.1,08.5,0001.9,0017.37,0012.94,0012.34
2021-09-05 13:38:00,,0831.1,4.99,0.00,30.4,29.5,00.0,39.5,32.1,08.4,0002.0,0017.55,0012.97,0012.35
2021-09-05 13:39:00,,0831.2,5.01,0.00,30.4,29.5,00.0,39.5,32.1,08.4,0001.3,0017.57,0013.01,0012.36
2021-09-05 13:40:00,,0831.2,5.00,0.00,30.4,29.5,00.0,39.5,32.1,08.4,0001.7,0017.55,0013.03,0012.36
2021-09-05 13:41:00,,0831.2,5.00,0.00,30.4,29.5,00.0,39.5,32.1,08.7,0001.1,0017.50,0013.05,0012.38
2021-09-05 13:42:00,,0831.2,5.00,0.00,30.4,29.5,00.0,39.5,32.1,08.2,0001.4,0017.51,0013.08,0012.42
2021-09-05 13:43:00,,0831.2,4.99,0.00,30.5,29.5,00.0,39.5,32.1,08.0,0001.7,0017.65,0013.14,0012.46
2021-09-05 13:44:00,,0831.2,5.00,0.00,30.5,29.6,00.0,39.6,32.1,07.9,0002.1,0017.80,0013.24,0012.53
2021-09-05 13:45:00,,0831.2,5.00,0.00,30.5,29.5,00.0,39.6,32.1,07.9,0001.8,0017.92,0013.30,0012.56
2021-09-05 13:46:00,,0831.2,5.01,0.00,30.5,29.5,00.0,39.6,32.2,08.1,0002.0,0017.79,0013.31,0012.58
2021-09-05 13:47:00,,0831.2,5.00,0.00,30.5,29.5,00.0,39.6,32.2,08.0,0002.0,0017.95,0013.38,0012.60
2021-09-05 13:48:00,,0831.2,5.00,0.00,30.5,29.6,00.0,39.6,32.2,07.9,0002.1,0017.98,0013.38,0012.59
2021-09-05 13:49:00,,0831.2,5.00,0.00,30.5,29.6,00.0,39.6,32.2,07.8,0002.0,0017.94,0013.36,0012.57
2021-09-05 13:50:00,,0831.2,5.00,0.00,30.5,29.6,00.0,39.6,32.2,08.0,0002.3,0017.94,0013.34,0012.55
2021-09-05 13:51:00,,0831.2,5.00,0.00,30.5,29.6,00.0,39.6,32.2,08.1,0002.4,0018.07,0013.37,0012.56
2021-09-05 13:52:00,,0831.2,5.01,0.00,30.5,29.6,00.0,39.6,32.2,08.1,0003.1,0018.75,0013.35,0012.56
2021-09-05 13:53:00,,0831.2,5.01,0.00,30.5,29.6,00.0,39.6,32.3,08.0,0002.8,0018.78,0013.36,0012.55
2021-09-05 13:54:00,,0831.3,4.99,0.00,30.6,29.6,00.0,39.6,32.3,08.1,0002.9,0018.70,0013.35,0012.55
2021-09-05 13:55:00,,0831.2,5.00,0.00,30.6,29.7,00.0,39.7,32.3,09.5,0002.6,0018.98,0013.34,0012.54
2021-09-05 13:56:00,,0831.3,5.00,0.00,30.6,29.7,00.0,39.7,32.3,11.1,0002.7,0019.79,0013.25,0012.48
2021-09-05 13:57:00,,0831.3,4.99,0.00,30.6,29.7,00.0,39.7,32.3,10.6,0002.3,0019.94,0013.21,0012.40
2021-09-05 13:58:00,,0831.3,5.00,0.00,30.6,29.7,00.0,39.7,32.3,09.0,0002.1,0019.90,0013.13,0012.34
2021-09-05 13:59:00,,0831.3,5.00,0.00,30.6,29.7,00.0,39.7,32.3,09.4,0002.4,0019.84,0013.07,0012.31
